FW1272 Weather Reports


time (UTC)temp
C
wind
direction
speed
KPH
gust
KPH
rain 1hr
cm
rain 24hr
cm
rain mn
cm
humidity
%
barometer
mb
20260504194055 24 260 14.5 29.0 0.00 0.00 0.00 45 1015.4
20260504193824 24 294 12.9 29.0 0.00 0.00 0.00 45 1015.5
20260504193055 25 270 9.7 29.0 0.00 0.00 0.00 44 1015.6
20260504192557 25 281 3.2 25.7 0.00 0.00 0.00 42 1015.5
20260504192055 25 237 11.3 25.7 0.00 0.00 0.00 41 1015.6
20260504191556 25 229 14.5 19.3 0.00 0.00 0.00 45 1016.0
20260504191055 25 242 3.2 19.3 0.00 0.00 0.00 46 1015.7
20260504190556 25 237 14.5 22.5 0.00 0.00 0.00 44 1015.8
20260504190055 25 241 8.0 25.7 0.00 0.00 0.00 42 1015.8
20260504185555 24 201 14.5 25.7 0.00 0.00 0.00 44 1016.1
20260504185320 25 260 14.5 33.8 0.00 0.00 0.00 44 1016.2
20260504184818 24 197 6.4 33.8 0.00 0.00 0.00 43 1016.2
20260504184056 24 209 4.8 25.7 0.00 0.00 0.00 46 1016.3
20260504183554 24 174 9.7 25.7 0.00 0.00 0.00 44 1016.4
20260504183056 24 239 12.9 22.5 0.00 0.00 0.00 44 1016.3
20260504182555 25 169 3.2 25.7 0.00 0.00 0.00 45 1016.4
20260504182056 23 239 17.7 25.7 0.00 0.00 0.00 47 1016.4
20260504181813 24 263 12.9 22.5 0.00 0.00 0.00 47 1016.5
20260504181056 23 173 9.7 19.3 0.00 0.00 0.00 49 1016.5
20260504180555 23 199 9.7 25.7 0.00 0.00 0.00 48 1016.6
20260504180055 23 167 16.1 33.8 0.00 0.00 0.00 47 1016.7
20260504175555 23 234 12.9 33.8 0.00 0.00 0.00 50 1016.8
20260504175055 24 201 6.4 14.5 0.00 0.00 0.00 49 1016.7
20260504174555 23 311 0.0 22.5 0.00 0.00 0.00 48 1016.9
20260504174055 23 252 12.9 22.5 0.00 0.00 0.00 50 1017.1
20260504173555 23 250 12.9 19.3 0.00 0.00 0.00 49 1016.9
20260504173319 23 233 3.2 40.2 0.00 0.00 0.00 54 1017.2
20260504172555 22 234 8.0 40.2 0.00 0.00 0.00 49 1017.3
20260504172055 23 66 8.0 22.5 0.00 0.00 0.00 49 1017.3
20260504171556 22 292 16.1 29.0 0.00 0.00 0.00 49 1017.5
20260504171055 22 257 6.4 29.0 0.00 0.00 0.00 52 1017.5
20260504170556 22 305 9.7 25.7 0.00 0.00 0.00 51 1017.5
20260504150817 19 226 22.5 25.7 0.00 0.00 0.00 61 1018.3
20260504141314 16 238 3.2 14.5 0.00 0.00 0.00 73 1019.1
20260504140556 16 203 4.8 19.3 0.00 0.00 0.00 72 1019.1
20260504130555 12 190 3.2 3.2 0.00 0.00 0.00 84 1018.9
20260504120316 6 268 0.0 0.0 0.00 0.00 0.00 99 1018.8
20260504110543 4 268 0.0 0.0 0.00 0.00 0.00 99 1018.3
20260504100502 4 268 0.0 0.0 0.00 0.00 0.00 99 1017.8
20260504081443 5 268 0.0 0.0 0.00 0.00 0.00 99 1018.1
20260504080943 5 268 0.0 0.0 0.00 0.00 0.00 99 1018.2
20260504080443 5 268 0.0 0.0 0.00 0.00 0.00 99 1018.2
20260504080431 5 268 0.0 0.0 0.00 0.00 0.00 99 1018.2
20260504050432 7 268 0.0 0.0 0.00 0.00 0.00 99 1018.8
20260504050154 7 269 0.0 0.0 0.00 0.00 0.00 99 1019.0
20260504045432 7 269 0.0 0.0 0.00 0.00 0.00 99 1018.9
20260504044920 7 269 0.0 0.0 0.00 0.00 0.00 99 1018.9
20260504044419 7 269 0.0 0.0 0.00 0.00 0.00 99 1019.0
20260504043919 7 269 0.0 0.0 0.00 0.00 0.00 99 1019.2
20260504043419 7 269 0.0 0.0 0.00 0.00 0.00 99 1019.1
20260504042919 8 268 0.0 0.0 0.00 0.00 0.00 99 1019.1
20260504042422 8 268 0.0 0.0 0.00 0.00 0.00 99 1019.1
20260504041919 8 268 0.0 0.0 0.00 0.00 0.00 99 1019.1
20260504041419 8 268 0.0 0.0 0.00 0.00 0.00 99 1019.1
20260504041141 8 268 0.0 0.0 0.00 0.00 0.00 99 1019.2
20260504040420 8 268 0.0 0.0 0.00 0.00 0.00 99 1019.1
20260504035919 8 268 0.0 0.0 0.00 0.00 0.00 99 1019.1
20260504035408 8 268 0.0 0.0 0.00 0.00 0.00 99 1019.3
20260504034907 8 268 0.0 0.0 0.00 0.00 0.00 99 1019.3
20260504034407 8 268 0.0 0.0 0.00 0.00 0.00 99 1019.4
20260504034127 8 268 0.0 0.0 0.00 0.00 0.00 99 1019.2
20260504033626 8 268 0.0 0.0 0.00 0.00 0.00 99 1019.3
20260504033128 8 268 0.0 0.0 0.00 0.00 0.00 99 1019.2
20260504032633 9 269 0.0 0.0 0.00 0.00 0.00 99 1019.2
20260504031907 9 269 0.0 0.0 0.00 0.00 0.00 99 1019.1
20260504031407 9 269 0.0 0.0 0.00 0.00 0.00 99 1019.3
20260504030907 9 269 0.0 0.0 0.00 0.00 0.00 99 1019.2
20260504030407 9 269 0.0 0.0 0.00 0.00 0.00 98 1019.2
20260504025908 9 269 0.0 0.0 0.00 0.00 0.00 98 1019.2
20260504025407 9 269 0.0 0.0 0.00 0.00 0.00 98 1019.1
20260504024907 10 268 0.0 0.0 0.00 0.00 0.00 98 1019.2
20260504024408 10 268 0.0 0.0 0.00 0.00 0.00 98 1019.2
20260504023907 10 268 0.0 0.0 0.00 0.00 0.00 97 1019.2
20260504023856 10 269 0.0 0.0 0.00 0.00 0.00 97 1019.2
20260504022907 10 268 0.0 0.0 0.00 0.00 0.00 97 1019.0
20260504022407 10 269 0.0 0.0 0.00 0.00 0.00 96 1019.0
20260504022131 10 269 0.0 0.0 0.00 0.00 0.00 95 1019.0
20260504021407 10 269 0.0 0.0 0.00 0.00 0.00 95 1019.1
20260504020907 10 269 0.0 0.0 0.00 0.00 0.00 94 1018.9
20260504020407 11 269 0.0 0.0 0.00 0.00 0.00 94 1019.0
20260504020117 11 269 0.0 0.0 0.00 0.00 0.00 93 1018.9
20260504015355 11 269 0.0 0.0 0.00 0.00 0.00 94 1018.8
20260504015122 11 269 0.0 0.0 0.00 0.00 0.00 92 1018.7
20260504014344 11 269 0.0 0.0 0.00 0.00 0.00 92 1018.7
20260504013844 11 269 0.0 0.0 0.00 0.00 0.00 91 1018.6
20260504013342 12 269 0.0 0.0 0.00 0.00 0.00 91 1018.9
20260504013105 12 269 0.0 0.0 0.00 0.00 0.00 90 1018.7
20260504012344 12 269 0.0 0.0 0.00 0.00 0.00 89 1018.5
20260504011843 12 269 0.0 0.0 0.00 0.00 0.00 88 1018.6
20260504011343 12 269 0.0 0.0 0.00 0.00 0.00 85 1018.5
20260504011051 12 269 0.0 0.0 0.00 0.00 0.00 84 1018.5
20260504010331 13 269 0.0 0.0 0.00 0.00 0.00 82 1018.5
20260504005832 13 269 0.0 0.0 0.00 0.00 0.00 78 1018.5
20260504005331 13 269 0.0 0.0 0.00 0.00 0.00 78 1018.6
20260504004833 13 269 0.0 0.0 0.00 0.00 0.00 79 1018.6
20260504004331 14 269 0.0 0.0 0.00 0.00 0.00 75 1018.5
20260504003832 15 269 0.0 0.0 0.00 0.00 0.00 76 1018.3
20260504003536 15 269 0.0 0.0 0.00 0.00 0.00 70 1018.3
20260504003038 15 269 0.0 0.0 0.00 0.00 0.00 71 1018.3
20260504002319 15 269 0.0 0.0 0.00 0.00 0.00 70 1018.2
20260504001819 16 269 0.0 0.0 0.00 0.00 0.00 69 1018.2
20260504001319 16 269 0.0 0.0 0.00 0.00 0.00 70 1018.3
20260504000819 17 269 0.0 0.0 0.00 0.00 0.00 66 1018.1
20260504000319 17 269 0.0 3.2 0.00 0.00 0.00 66 1018.2
20260503235807 18 269 0.0 3.2 0.00 0.00 0.00 61 1018.2
20260503235529 18 269 0.0 3.2 0.00 0.00 0.00 55 1018.3
20260503235415 19 269 1.6 3.2 0.00 0.00 0.00 54 1018.1
20260503234307 20 269 3.2 6.4 0.00 0.00 0.00 50 1018.1
20260503233807 20 269 1.6 6.4 0.00 0.00 0.00 52 1018.1
20260503233307 20 271 1.6 6.4 0.00 0.00 0.00 50 1018.1
20260503232807 21 272 3.2 3.2 0.00 0.00 0.00 54 1018.2
20260503232307 21 273 1.6 11.3 0.00 0.00 0.00 43 1018.2
20260503231807 21 272 3.2 11.3 0.00 0.00 0.00 44 1018.2
20260503231307 21 264 3.2 11.3 0.00 0.00 0.00 42 1018.3
20260503230807 21 283 0.0 11.3 0.00 0.00 0.00 44 1018.3
20260503230307 21 40 3.2 14.5 0.00 0.00 0.00 39 1018.3
20260503230030 21 303 11.3 14.5 0.00 0.00 0.00 39 1018.3
20260503225307 21 313 6.4 14.5 0.00 0.00 0.00 42 1018.3
20260503225025 21 17 9.7 11.3 0.00 0.00 0.00 38 1018.5
20260503224307 21 317 4.8 11.3 0.00 0.00 0.00 37 1018.2
20260503223808 21 326 8.0 14.5 0.00 0.00 0.00 38 1018.4
20260503223307 21 270 9.7 22.5 0.00 0.00 0.00 40 1018.5
20260503223026 21 339 4.8 22.5 0.00 0.00 0.00 37 1018.4
20260503222525 21 302 16.1 22.5 0.00 0.00 0.00 38 1018.5
20260503222027 21 1 11.3 22.5 0.00 0.00 0.00 40 1018.5
20260503221307 21 258 11.3 19.3 0.00 0.00 0.00 41 1018.6
20260503220807 21 243 14.5 22.5 0.00 0.00 0.00 39 1018.4
20260503220307 21 279 11.3 22.5 0.00 0.00 0.00 41 1018.5
20260503220247 21 250 12.9 22.5 0.00 0.00 0.00 40 1018.4
20260503215526 21 323 8.0 25.7 0.00 0.00 0.00 40 1018.5
20260503214807 21 349 16.1 25.7 0.00 0.00 0.00 40 1018.5
20260503214307 21 272 12.9 22.5 0.00 0.00 0.00 41 1018.5
20260503213807 21 21 6.4 19.3 0.00 0.00 0.00 40 1018.7
20260503213307 21 328 9.7 22.5 0.00 0.00 0.00 40 1018.7
20260503212807 21 12 8.0 22.5 0.00 0.00 0.00 42 1018.5
20260503212307 21 265 8.0 25.7 0.00 0.00 0.00 39 1018.7
20260503211807 21 269 4.8 25.7 0.00 0.00 0.00 42 1018.9
20260503211307 22 5 17.7 25.7 0.00 0.00 0.00 41 1018.7
20260503210807 21 347 9.7 22.5 0.00 0.00 0.00 39 1018.8
20260503210307 21 253 12.9 22.5 0.00 0.00 0.00 39 1018.9
20260503205807 21 301 6.4 22.5 0.00 0.00 0.00 39 1018.8
20260503205307 21 261 12.9 22.5 0.00 0.00 0.00 42 1018.9
20260503204807 21 261 6.4 19.3 0.00 0.00 0.00 42 1018.9
20260503204531 21 273 12.9 25.7 0.00 0.00 0.00 41 1019.1
20260503204028 21 250 6.4 25.7 0.00 0.00 0.00 39 1019.2
20260503203307 21 308 12.9 29.0 0.00 0.00 0.00 39 1019.2
20260503202807 21 339 19.3 29.0 0.00 0.00 0.00 39 1019.4
20260503202307 21 25 9.7 22.5 0.00 0.00 0.00 40 1019.4
20260503201807 20 311 12.9 37.0 0.00 0.00 0.00 41 1019.4
20260503201525 20 353 12.9 37.0 0.00 0.00 0.00 43 1019.5
20260503200808 20 289 12.9 37.0 0.00 0.00 0.00 44 1019.6
20260503200526 20 343 6.4 29.0 0.00 0.00 0.00 43 1019.7
20260503195808 20 343 16.1 29.0 0.00 0.00 0.00 43 1019.8
20260503195307 20 243 11.3 29.0 0.00 0.00 0.00 46 1019.9
20260503194810 20 300 11.3 33.8 0.00 0.00 0.00 46 1020.0